Home > Weather > Hammerfest > Past weeks

Flag for Norway Past Weather in Hammerfest, Norway — Yesterday and Last 2 Weeks

Now
46 °F

Broken clouds.


Feels Like: 44 °F
Forecast: 47 / 53 °F
Wind: 6 mph from Southwest

Location: Hammerfest

Current Time: Jun 25, 2016 at 10:55:50 AM

Latest Report: Jun 25, 2016 at 9:50 AM


Visibility: N/A

Pressure: 29.98 "Hg

Humidity: 93%

Dew Point: 45 °F

Location of HammerfestLocation

Past Weather in Hammerfest — Graph

°F

Hammerfest Temperature Yesterday

Maximum temperature yesterday: 63 °F (at 10:50 AM)
Minimum temperature yesterday: 46 °F (at 7:50 PM)
Average temperature yesterday: 53 °F

High & Low Weather Summary for the Past Weeks

 TemperatureHumidityPressure
High63 °F (Jun 21, 3:50 PM)100% (Jun 17, 12:50 AM)30.07 "Hg (Jun 17, 12:50 AM)
Low39 °F (Jun 10, 9:50 PM)52% (Jun 21, 3:50 PM)29.68 "Hg (Jun 14, 5:50 AM)
Average46 °F84%29.87 "Hg
* Reported Jun 10 8:50 AM — Jun 25 8:50 AM, Hammerfest, Weather by CustomWeather, © 2016

Note: Actual official high and low records may vary slightly from our data, if they occured in-between our weather recording intervals... More about our weather records

Advertising

Hammerfest Weather History for the Previous 24 Hours

Scroll right to see more
 ConditionsComfort  
Time TempWeatherWind HumidityBarometerVisibility
8:50 AM
Sat, Jun 25
46 °FBroken clouds.6 mph93%29.95 "HgN/A
7:50 AM46 °FBroken clouds.8 mph93%29.95 "HgN/A
6:50 AM46 °FBroken clouds.3 mph93%29.95 "HgN/A
5:50 AM46 °FPartly sunny.3 mph87%29.95 "HgN/A
4:50 AM46 °FBroken clouds.8 mph87%29.95 "HgN/A
3:50 AM46 °FBroken clouds.12 mph87%29.95 "HgN/A
2:50 AM48 °FDrizzle. Broken clouds.12 mph82%29.95 "HgN/A
1:50 AM46 °FDrizzle. Broken clouds.16 mph93%29.95 "HgN/A
12:50 AM48 °FDrizzle. Broken clouds.16 mph87%29.98 "HgN/A
11:50 PM
Fri, Jun 24
48 °FDrizzle. Broken clouds.7 mph87%29.98 "HgN/A
10:50 PM48 °FBroken clouds.5 mph87%29.98 "HgN/A
9:50 PM48 °FLight rain. Broken clouds.1 mph94%29.98 "HgN/A
8:50 PM48 °FLight rain. Broken clouds.5 mph94%29.98 "HgN/A
7:50 PM46 °FLight rain. Broken clouds.9 mph100%29.98 "HgN/A
6:50 PM48 °FLight rain. Broken clouds.6 mph94%29.98 "HgN/A
5:50 PM50 °FLight rain. Broken clouds.7 mph94%29.98 "Hg6 mi
4:50 PM52 °FLight rain. Broken clouds.7 mph94%29.98 "Hg5 mi
3:50 PM54 °FDrizzle. Broken clouds.8 mph88%29.95 "HgN/A
2:50 PM57 °FBroken clouds.12 mph77%29.95 "HgN/A
1:50 PM61 °FSunny.12 mph68%29.95 "Hg10 mi
12:50 PM61 °FPassing clouds.8 mph68%29.95 "HgN/A
11:50 AM61 °FSunny.10 mph63%29.95 "Hg10 mi
10:50 AM63 °FPassing clouds.3 mph64%29.98 "HgN/A
Weather by CustomWeather, © 2016

See weather overviewHow to use our weather pages